Weather History for KPNC - February, 2014

Change the Weather History Date:

Sunday, February 2, 2014

  Actual Average Record
Temperature  
Mean Temperature 24 °F -  
Max Temperature 34 °F 45 °F 72 °F (2003)
Min Temperature 12 °F 25 °F 1 °F (2011)
Degree Days  
Heating Degree Days 41    
Moisture  
Dew Point 8 °F    
Average Humidity 53    
Maximum Humidity 70    
Minimum Humidity 27    
Precipitation  
Precipitation 0.00 in - - ()
Sea Level Pressure  
Sea Level Pressure 30.31 in    
Wind  
Wind Speed 12 mph (NNE)    
Max Wind Speed 17 mph    
Max Gust Speed 22 mph    
Visibility 10 miles    
Events      
Averages and records for this station are not official NWS values.
T = Trace of Precipitation, MM = Missing Value Source: NWS Daily Summary

Daily Weather History Graph

Daily Weather History Graph

Search for Another Location

Airport or City:

Trip Planner

Search our weather history database for the weather conditions in past years. The results will help you decide how hot, cold, wet, or windy it might be!

Date:

Astronomy

Feb. 02, 2014 Rise Set
Actual Time 7:29 AM CST 5:55 PM CST
Civil Twilight 7:02 AM CST 6:22 PM CST
Nautical Twilight 6:31 AM CST 6:53 PM CST
Astronomical Twilight 6:01 AM CST 7:23 PM CST
Moon 9:03 AM CST (2/2) 9:33 PM CST (2/2)
Length of Visible Light 11h 20m
Length of Day
10h 25m
Waxing Crescent, 11% of the Moon is Illuminated
Feb 2
Waxing Crescent
Feb 6
First Quarter
Feb 14
Full
Feb 22
Last Quarter
Mar 1
New

Hourly Weather History & Observations

Time (CST) Temp. Windchill Dew Point Humidity Pressure Visibility Wind Dir Wind Speed Gust Speed Precip Events Conditions
12:10 AM 28.4 °F 16.6 °F 17.6 °F 64% 30.22 in 10.0 mi North 16.1 mph - N/A   Scattered Clouds
12:28 AM 26.6 °F 16.8 °F 17.6 °F 69% 30.21 in 10.0 mi North 10.4 mph - N/A   Mostly Cloudy
12:53 AM 27.0 °F 15.6 °F 17.1 °F 66% 30.25 in 10.0 mi North 13.8 mph - N/A   Mostly Cloudy
1:53 AM 25.0 °F 14.8 °F 16.0 °F 69% 30.28 in 10.0 mi North 10.4 mph - N/A   Mostly Cloudy
2:53 AM 25.0 °F 14.2 °F 16.0 °F 69% 30.27 in 10.0 mi North 11.5 mph - N/A   Partly Cloudy
3:53 AM 24.1 °F 11.5 °F 12.9 °F 62% 30.25 in 10.0 mi North 15.0 mph - N/A   Clear
4:53 AM 21.9 °F 8.7 °F 10.9 °F 63% 30.29 in 10.0 mi North 15.0 mph - N/A   Mostly Cloudy
5:53 AM 21.9 °F 9.2 °F 10.9 °F 63% 30.31 in 10.0 mi NNE 13.8 mph - N/A   Mostly Cloudy
6:53 AM 21.9 °F 7.8 °F 10.0 °F 60% 30.31 in 10.0 mi NNE 17.3 mph - N/A   Overcast
7:53 AM 21.9 °F 9.2 °F 10.0 °F 60% 30.32 in 10.0 mi NNE 13.8 mph - N/A   Overcast
8:53 AM 21.9 °F 8.7 °F 8.1 °F 55% 30.34 in 10.0 mi NNE 15.0 mph - N/A   Mostly Cloudy
9:53 AM 21.9 °F 10.4 °F 8.1 °F 55% 30.40 in 10.0 mi NNE 11.5 mph - N/A   Clear
10:53 AM 24.1 °F 11.0 °F 6.1 °F 46% 30.37 in 10.0 mi NNE 16.1 mph - N/A   Clear
11:53 AM 26.1 °F 15.0 °F 5.0 °F 41% 30.36 in 10.0 mi NNE 12.7 mph - N/A   Clear
12:53 PM 28.9 °F 17.3 °F 3.9 °F 35% 30.34 in 10.0 mi NNE 16.1 mph 21.9 mph N/A   Clear
1:53 PM 32.0 °F 22.1 °F 3.9 °F 31% 30.31 in 10.0 mi NNE 13.8 mph - N/A   Clear
2:53 PM 33.1 °F 24.4 °F 3.9 °F 29% 30.30 in 10.0 mi North 11.5 mph 16.1 mph N/A   Clear
3:53 PM 34.0 °F 25.5 °F 3.0 °F 27% 30.29 in 10.0 mi NE 11.5 mph - N/A   Clear
4:53 PM 33.1 °F 24.4 °F 3.0 °F 28% 30.30 in 10.0 mi NE 11.5 mph - N/A   Clear
5:53 PM 28.0 °F 20.0 °F 3.0 °F 34% 30.31 in 10.0 mi NE 8.1 mph - N/A   Clear
6:53 PM 25.0 °F 18.1 °F 5.0 °F 43% 30.33 in 10.0 mi ENE 5.8 mph - N/A   Clear
7:53 PM 23.0 °F 15.8 °F 6.1 °F 48% 30.33 in 10.0 mi ENE 5.8 mph - N/A   Clear
8:53 PM 16.0 °F - 3.9 °F 59% 30.35 in 10.0 mi Calm Calm - N/A   Clear
9:53 PM 14.0 °F 6.5 °F 3.9 °F 64% 30.35 in 10.0 mi ENE 4.6 mph - N/A   Clear
10:53 PM 14.0 °F - 5.0 °F 67% 30.35 in 10.0 mi Calm Calm - N/A   Clear
11:53 PM 12.0 °F - 3.9 °F 70% 30.34 in 10.0 mi Calm Calm - N/A   Clear